Theta_e
298 291 288 287 289 291 292 292 292 293 293 292 292 289 288 287 288 291 292 293 293 292 290 290 290 290 291 292 293 293 292 292 292 292 294 294 294 294 294 297 299 300 302 302 309 313 315 318 320 321 322 322 322 324 324 325 325 326 327 326 326 327 328 328 329 329 329 327 326 324 325 322 323 325 327 328 328 328 329 329 329 329 329 328 328 329
295 289 289 291 292 293 294 293 293 293 292 291 289 288 287 288 286 290 292 293 293 291 289 289 289 290 291 293 293 292 292 293 293 293 293 295 295 295 295 295 296 298 300 302 301 309 310 315 317 318 320 318 320 322 323 324 325 326 326 326 327 327 328 328 329 328 328 328 328 327 326 323 322 322 323 325 325 327 327 327 328 329 329 328 328 326
288 287 291 293 295 294 294 294 293 292 291 293 288 287 287 286 288 292 291 293 292 291 285 286 287 290 292 293 292 292 294 295 295 295 296 296 295 296 296 296 296 297 301 302 302 305 309 312 315 317 318 320 323 323 323 324 325 325 325 327 327 327 328 328 328 328 327 327 326 326 321 324 319 319 323 323 322 324 325 325 325 328 330 330 328 327
285 287 293 295 294 293 291 292 292 291 293 290 289 285 284 287 287 286 289 292 292 288 287 287 287 288 291 291 292 293 294 295 296 296 296 296 296 296 297 298 298 297 300 302 302 304 307 311 314 315 316 318 320 320 321 323 323 325 324 325 326 327 327 327 327 325 327 326 325 325 322 323 324 322 319 321 321 321 321 322 323 325 328 329 329 328
288 291 294 294 294 293 291 291 290 289 287 290 291 288 288 291 289 287 288 290 291 290 290 287 284 286 287 289 289 293 294 294 294 294 295 296 297 298 298 298 299 299 300 302 301 301 304 306 310 313 315 316 317 318 319 321 323 325 324 325 326 327 327 327 324 325 324 323 321 321 317 317 317 316 316 317 317 320 319 318 318 322 322 324 326 327
290 293 294 293 292 292 292 290 290 291 287 288 290 291 292 292 289 289 289 287 284 284 287 288 278 277 282 285 288 291 289 291 292 292 294 295 296 294 295 296 296 298 299 303 302 302 303 306 306 306 306 309 313 315 317 320 322 323 323 322 323 324 325 325 323 324 324 323 323 320 319 317 316 317 315 318 318 316 317 319 313 316 317 320 322 325
291 292 293 292 292 291 292 290 292 292 287 286 287 293 292 291 289 288 288 287 281 280 287 287 281 274 280 283 285 286 287 290 290 292 294 294 295 295 297 297 297 299 298 298 299 299 299 301 302 302 302 304 308 310 310 309 314 316 319 320 321 323 323 324 322 321 322 322 322 322 321 320 319 318 313 310 309 313 310 310 314 316 315 317 319 320
290 291 292 292 292 291 290 289 292 292 288 284 289 293 293 291 289 288 288 286 282 285 288 287 281 277 278 285 288 288 287 287 288 290 292 293 293 295 296 296 296 297 296 298 299 299 299 300 302 302 302 302 304 303 300 305 308 313 316 318 319 320 320 321 321 320 321 322 320 319 318 316 316 315 314 310 312 310 311 312 312 311 312 313 316 316
291 289 291 291 291 289 289 291 293 293 289 288 293 294 292 292 290 290 288 285 285 284 280 280 286 282 276 282 285 287 288 288 288 290 292 293 293 294 295 296 295 295 295 296 296 296 296 298 299 300 300 300 300 300 302 304 307 309 313 315 315 317 317 317 319 319 318 320 319 318 317 313 311 312 311 309 308 311 310 311 309 311 310 312 314 316
292 292 294 294 292 289 292 292 293 294 290 293 295 295 294 293 291 291 285 286 286 281 277 281 283 278 278 280 284 284 286 285 286 289 291 292 294 293 294 293 294 296 296 296 297 297 297 296 296 297 298 299 300 300 301 300 301 304 309 313 314 314 315 315 317 317 315 316 316 316 314 314 310 311 307 308 307 306 306 307 305 307 308 310 311 314
292 295 293 294 292 292 291 292 292 295 293 295 294 292 289 287 285 282 283 283 284 277 278 281 283 282 277 280 284 285 286 287 289 287 288 291 291 291 292 294 296 297 296 296 296 295 298 296 296 298 300 300 299 297 300 301 302 302 308 310 312 311 312 312 315 315 314 314 314 315 313 313 311 310 310 309 308 307 305 308 305 306 309 309 313 313
290 292 293 292 294 292 294 293 294 295 295 295 290 285 287 284 281 279 281 281 277 272 276 280 282 282 276 276 281 285 286 286 288 288 290 292 292 294 294 295 295 295 296 295 295 295 297 298 298 298 300 300 300 299 300 300 300 303 306 308 310 307 310 310 312 313 312 311 311 311 311 312 311 311 310 309 307 305 306 305 306 306 307 308 309 311
286 288 292 292 295 294 291 291 290 293 295 291 288 287 283 279 279 275 277 276 273 274 280 280 282 282 281 283 285 287 287 286 286 288 291 292 292 293 294 294 294 294 294 296 295 295 296 297 297 297 298 298 300 302 301 301 301 302 304 307 308 308 308 309 309 311 309 308 309 310 311 311 310 309 308 307 307 305 306 306 305 305 305 304 310 309
284 287 290 291 292 294 294 288 285 286 289 288 287 283 280 276 272 269 268 271 271 277 280 281 281 280 281 284 291 293 295 295 290 289 291 294 295 295 295 293 295 295 295 296 296 295 296 297 297 298 299 300 299 299 302 302 302 303 305 306 308 307 306 306 308 309 309 308 308 309 311 311 310 308 308 308 308 306 306 307 307 306 305 304 303 303
279 280 285 289 286 293 293 291 291 289 290 290 288 288 283 281 274 271 273 273 274 275 277 281 279 275 278 283 285 290 292 291 289 291 291 291 293 294 293 293 294 294 294 294 295 297 297 298 297 299 299 299 300 301 303 302 304 305 306 307 307 307 306 307 308 309 309 309 309 310 311 312 311 310 308 306 307 307 305 303 306 304 302 305 305 305
284 283 287 292 291 291 292 294 295 291 289 288 289 289 285 284 283 278 278 276 273 274 276 276 277 278 283 285 289 288 289 292 291 292 292 293 293 292 293 294 295 295 296 296 296 296 296 296 297 298 299 299 300 301 301 303 304 306 306 307 308 308 307 307 307 309 310 309 310 310 312 312 310 308 306 304 304 303 304 303 304 302 302 303 303 301
282 280 288 290 291 290 292 291 294 294 284 287 289 284 285 288 285 279 280 281 277 274 274 276 279 281 283 288 292 290 289 289 290 291 291 291 291 290 291 292 293 295 294 294 296 295 296 296 296 297 297 298 299 300 301 302 304 306 306 306 306 306 305 307 307 308 310 311 310 309 309 309 307 306 304 304 303 302 302 302 302 302 300 301 302 302
282 282 287 286 288 292 290 289 293 289 291 287 283 287 290 292 288 284 278 277 274 272 273 277 277 277 280 279 285 286 287 287 287 289 290 289 289 290 291 292 294 295 295 295 295 295 295 295 295 295 296 297 298 297 297 298 300 304 305 306 305 305 305 304 307 308 308 309 308 307 306 304 304 303 302 302 301 301 301 300 300 300 300 299 300 300
288 281 285 287 289 290 292 293 291 292 293 288 287 293 288 282 281 283 281 274 274 271 269 275 277 277 278 281 283 285 286 288 290 289 288 290 291 291 292 293 293 294 295 296 296 296 296 295 295 295 295 295 296 296 295 298 301 302 301 302 304 304 304 305 306 306 305 305 304 303 302 301 301 301 301 300 300 300 300 298 298 298 297 297 297 298
289 283 284 288 289 289 290 289 284 285 290 292 291 288 289 286 284 280 281 281 279 272 273 272 276 276 281 281 284 288 287 289 290 288 289 291 292 292 294 296 296 296 296 296 296 296 295 294 294 296 297 297 297 297 296 297 299 299 299 299 299 300 301 301 301 301 301 300 301 299 299 298 299 299 299 299 299 298 297 296 296 296 297 296 296 295
286 287 279 284 288 289 284 285 285 286 285 284 284 284 286 285 286 284 285 281 276 272 271 268 271 274 280 285 287 290 291 290 290 290 291 291 292 292 295 297 297 297 296 296 296 296 295 295 295 295 295 296 295 295 296 297 298 298 299 299 299 300 300 299 299 300 299 299 298 298 298 298 298 297 297 297 296 296 295 294 294 294 293 292 292 292
286 284 283 283 283 281 283 288 288 289 290 288 288 285 287 283 281 278 278 284 279 279 273 272 274 275 284 288 290 290 290 289 289 290 291 291 291 292 294 296 297 297 297 297 296 296 295 295 295 295 294 293 295 295 295 296 297 297 297 298 298 299 299 299 299 299 298 298 298 297 297 296 296 296 296 295 294 293 292 291 291 290 291 292 289 291
287 285 284 280 282 283 286 291 290 291 290 289 287 287 289 286 283 279 277 279 281 280 278 275 273 276 286 288 288 288 288 288 288 288 291 291 291 292 295 297 298 298 298 297 297 296 296 295 295 294 294 294 294 294 293 294 295 295 295 296 296 297 296 297 297 297 297 297 296 295 294 293 293 293 292 292 291 291 290 290 289 289 290 290 290 289
291 285 283 283 285 285 287 288 288 289 289 289 287 286 286 284 285 283 280 279 279 277 278 278 276 275 282 287 286 288 286 287 287 287 290 291 290 292 296 297 297 296 296 296 296 296 296 294 292 293 293 294 293 293 294 294 294 294 294 294 294 294 294 295 295 295 295 293 292 292 291 291 291 291 290 289 289 289 288 289 288 288 289 289 288 290
284 283 286 280 279 281 281 283 284 287 286 282 283 286 287 287 286 282 283 280 281 280 280 278 276 279 284 283 285 286 287 288 288 288 288 292 292 293 296 297 296 296 296 296 296 295 294 293 293 294 294 294 293 292 293 293 293 293 292 292 293 292 292 292 292 292 292 291 290 290 290 289 289 289 288 288 287 287 287 287 288 288 288 289 289 288
288 283 285 278 277 276 275 276 277 278 281 284 284 285 288 288 286 284 281 280 278 277 280 275 276 284 285 285 287 286 285 288 287 287 287 290 292 294 295 296 296 296 297 296 295 294 294 294 292 292 292 292 292 292 292 292 292 291 291 291 291 292 291 291 291 290 290 290 289 288 288 287 287 287 287 287 287 287 287 287 288 288 287 288 288 287
281 284 286 285 283 281 283 283 286 287 284 284 285 286 286 289 288 287 283 281 281 279 279 280 283 286 286 287 285 286 286 287 288 287 288 289 290 293 294 295 296 296 296 296 295 294 292 292 293 293 292 292 291 291 291 291 291 291 291 290 290 291 291 290 290 289 289 288 288 288 287 287 287 287 287 286 286 286 286 287 286 287 287 286 286 286
281 283 284 285 284 285 284 284 288 290 286 287 287 286 287 287 287 287 285 283 285 281 280 284 285 283 286 288 286 287 287 285 286 287 287 287 289 294 295 293 294 293 293 293 293 293 294 294 293 292 292 291 291 290 290 290 290 291 291 290 290 290 290 290 289 289 288 288 288 288 287 286 286 286 286 286 285 286 286 286 286 286 286 286 286 285
284 283 283 283 284 284 285 287 288 288 288 288 288 288 286 287 287 286 286 288 286 283 282 286 286 285 288 289 288 289 290 290 289 289 290 289 289 292 293 294 294 295 294 294 294 294 293 293 292 292 291 291 290 290 289 289 289 289 289 289 290 290 289 289 289 289 288 288 288 287 287 286 286 286 286 285 286 286 285 285 285 285 285 285 285 285
286 279 281 284 284 284 284 286 287 287 286 286 287 287 288 288 287 288 288 289 288 286 288 288 286 286 290 290 290 291 289 290 289 288 287 289 291 294 294 294 294 294 294 294 295 294 294 293 292 291 290 289 290 289 289 289 289 289 290 289 289 289 288 289 288 288 287 287 287 286 286 286 285 285 285 285 285 285 285 285 284 284 284 284 283 283
288 280 287 282 280 281 284 285 286 286 285 284 285 287 288 288 289 289 289 289 289 288 288 288 286 286 292 291 290 289 289 289 289 288 289 290 290 293 294 294 294 294 294 295 294 294 294 293 291 290 290 290 290 290 290 290 289 289 289 289 288 288 287 287 287 287 287 286 286 286 285 285 285 285 284 284 284 284 284 284 284 283 283 283 282 283
287 279 283 280 279 277 282 283 283 284 283 281 283 284 286 286 284 286 286 288 286 286 287 286 285 286 291 291 290 292 291 290 290 289 289 289 290 292 293 293 294 294 295 295 295 294 293 291 290 290 290 290 290 290 290 289 289 289 288 288 287 287 286 286 286 286 286 285 285 285 285 284 284 284 283 283 283 283 282 282 282 282 282 281 281 281
284 281 280 278 277 275 279 282 281 280 282 279 283 287 287 286 288 288 289 289 290 290 286 284 286 291 290 290 292 293 290 289 290 290 289 288 290 292 294 294 294 295 296 296 295 294 293 292 291 291 290 290 290 290 290 289 289 288 288 287 287 286 286 286 286 285 285 285 284 284 284 283 283 283 282 282 282 282 282 281 281 281 280 280 280 280
282 284 279 280 277 273 276 279 279 278 275 279 288 290 290 288 288 285 286 288 290 290 289 291 291 292 289 289 291 292 289 289 292 292 293 294 292 291 292 292 294 295 295 296 295 294 293 292 291 291 291 290 290 290 289 289 288 288 287 287 286 286 285 285 285 285 284 284 284 283 283 282 282 282 281 281 281 281 281 281 281 280 280 279 280 279
283 282 280 277 278 274 274 280 277 274 276 286 288 292 293 292 291 289 290 290 290 291 291 290 291 291 291 291 292 292 292 291 291 292 292 291 291 293 294 293 294 294 295 295 294 294 293 293 292 290 290 289 289 289 288 287 287 287 286 286 286 285 285 285 284 284 284 283 283 282 282 281 281 281 280 280 280 280 280 280 279 279 278 278 279 278
282 283 278 280 276 274 274 276 271 275 282 284 285 288 290 289 289 288 287 289 289 290 291 290 292 293 293 291 291 291 290 290 289 289 290 291 291 294 293 294 295 295 294 295 295 295 294 293 292 291 290 290 289 288 288 287 287 287 286 286 285 285 285 284 284 283 283 282 282 281 281 281 281 280 280 280 279 279 279 278 277 277 278 277 277 276
286 284 282 279 278 275 272 275 276 278 282 285 285 284 287 285 283 286 283 287 291 292 292 292 293 293 293 293 292 290 288 289 290 293 290 290 290 291 295 295 296 296 296 296 296 296 296 294 293 291 289 289 288 288 287 287 287 286 285 285 285 285 284 284 283 282 282 281 281 281 280 280 280 280 279 279 278 278 278 277 276 276 277 275 275 275
287 285 282 282 277 277 272 272 273 274 275 282 285 286 291 290 291 290 286 286 292 292 293 293 292 294 293 291 289 288 289 288 288 291 293 289 290 292 292 294 294 294 295 293 291 291 291 290 289 288 288 288 287 287 287 286 286 286 285 284 284 284 283 283 282 282 281 281 280 280 280 279 279 279 278 277 277 277 276 275 275 275 276 275 275 275
285 284 282 284 278 278 274 274 271 273 279 282 284 287 288 291 290 286 283 283 291 290 289 291 292 293 291 289 287 286 288 286 288 291 294 291 290 291 293 292 290 289 290 291 292 290 289 288 288 288 287 287 286 286 286 286 286 285 284 284 283 283 282 282 281 281 281 280 280 279 279 278 278 277 277 276 276 275 275 275 275 275 274 274 274 275
282 279 281 279 275 276 276 275 274 274 281 283 284 285 289 289 291 288 274 279 286 290 291 290 291 291 289 289 288 288 288 287 288 293 289 289 290 289 291 291 286 286 286 286 286 288 288 287 287 286 287 287 287 286 286 286 285 284 284 283 283 282 282 281 281 281 280 280 279 279 278 277 277 277 276 276 275 275 275 275 275 274 274 274 273 273
278 279 280 279 279 280 281 273 274 279 286 283 284 286 286 291 290 281 277 283 286 289 290 292 290 291 291 288 287 288 289 294 292 288 283 285 286 286 284 284 284 286 287 287 286 287 286 287 287 287 287 287 286 286 285 285 284 283 283 282 282 281 281 281 281 280 280 279 279 278 278 277 277 276 276 275 275 276 276 275 274 274 273 272 272 270
276 276 276 277 277 278 278 276 278 279 286 285 284 287 288 288 278 280 286 286 287 286 287 290 290 289 290 289 289 291 293 290 281 283 285 285 285 283 283 283 284 283 283 284 286 286 286 286 285 285 285 285 285 285 285 284 284 283 282 281 280 280 280 280 280 280 279 279 278 277 276 276 276 276 276 276 276 275 275 276 274 274 273 271 269 268
281 279 278 280 278 276 275 276 275 274 282 291 288 285 286 287 285 284 283 286 285 284 286 285 287 289 289 289 289 291 289 283 283 283 283 282 282 283 283 283 284 284 284 284 284 284 285 284 283 284 283 283 284 284 284 283 282 281 280 280 279 279 280 280 280 279 278 277 276 276 275 275 274 275 275 274 276 275 274 274 273 272 271 270 268 268
286 280 276 281 283 278 278 275 279 285 286 291 291 287 286 290 286 285 288 286 285 283 285 286 286 286 286 289 288 288 285 284 283 281 281 281 281 281 281 281 282 282 282 282 283 283 283 283 282 281 280 281 282 282 282 282 280 279 278 277 278 278 278 278 278 277 276 275 274 274 274 273 273 274 274 274 274 274 273 272 271 271 269 269 269 270
286 285 285 281 282 281 281 284 288 282 287 285 290 289 291 294 289 286 287 290 289 288 282 286 288 285 285 287 287 287 284 284 285 283 283 282 282 282 282 282 282 283 283 282 281 281 281 281 279 278 277 277 278 279 279 279 279 277 276 276 277 277 277 277 276 275 274 273 273 273 273 273 274 274 274 273 272 272 272 271 269 269 270 269 269 268
286 287 283 287 284 288 287 288 287 284 285 288 285 287 286 288 285 284 286 288 287 286 286 286 284 286 284 284 287 283 286 284 282 282 281 281 281 280 280 280 280 280 280 280 279 279 278 277 277 277 276 274 274 276 276 276 277 276 275 276 276 276 275 275 275 274 273 273 273 273 273 273 273 273 272 272 272 271 270 270 270 270 269 267 266 265
283 283 284 283 281 285 282 290 286 285 284 286 288 286 284 284 286 284 285 285 287 284 284 286 284 284 284 284 285 286 283 282 283 281 281 281 282 282 282 281 281 281 280 280 279 277 276 276 276 275 275 274 272 273 273 273 273 274 275 275 275 274 274 274 274 273 273 273 273 273 273 272 271 271 270 269 269 269 269 269 267 267 267 265 264 263
284 283 285 283 283 285 286 285 284 285 285 284 287 288 288 287 286 283 284 283 283 283 284 286 284 284 283 285 283 284 283 283 283 282 282 282 282 282 282 282 281 280 279 279 277 276 275 275 275 274 274 273 272 272 272 272 272 272 273 273 273 273 273 273 273 272 272 273 273 272 271 271 271 269 269 269 268 268 267 267 266 265 265 264 263 262
283 287 282 283 285 285 284 281 282 285 287 286 284 284 285 285 285 283 282 283 283 284 285 284 284 286 284 285 282 283 283 283 284 284 283 282 281 281 282 281 281 280 279 277 276 275 276 275 274 273 273 273 272 272 271 271 270 271 271 272 272 273 273 273 273 272 272 272 271 270 270 269 269 268 267 267 267 266 266 266 266 264 263 262 262 262
284 285 282 283 283 284 285 285 283 283 282 286 285 283 284 284 283 283 282 283 283 283 283 284 286 284 283 281 283 284 285 284 283 282 283 282 282 281 280 280 279 278 277 277 276 275 275 274 274 273 273 272 272 271 271 270 270 270 270 270 271 272 272 272 271 271 271 270 269 268 268 267 267 267 266 266 265 265 266 270 272 270 265 265 272 275
285 283 285 285 285 284 286 283 284 284 282 283 284 284 281 282 283 284 284 283 282 282 283 283 284 285 285 284 282 284 283 283 283 282 281 281 281 281 281 279 278 277 277 276 275 274 274 273 272 272 272 272 271 270 270 269 269 269 269 269 270 271 272 271 270 270 269 268 267 267 266 266 266 266 266 266 265 265 264 262 265 273 274 273 273 274
Wind_Speed
5 7 9 10 8 6 5 6 8 10 6 3 4 5 9 7 4 2 1 2 4 2 7 7 7 6 7 7 8 7 4 4 5 5 7 7 6 7 8 9 10 10 12 8 11 11 10 11 10 9 9 9 9 8 8 9 9 9 9 9 10 8 9 9 9 9 9 9 7 6 7 7 7 7 7 7 7 7 7 7 6 6 7 7 7 8
7 9 10 9 10 10 10 7 6 9 6 3 4 5 8 6 8 2 2 0 1 4 4 5 5 8 9 8 8 4 5 9 10 8 8 9 8 7 8 9 10 10 2 2 6 7 7 8 9 8 8 8 10 9 9 11 12 11 9 11 10 8 10 10 11 10 9 9 9 9 9 6 6 6 7 7 6 7 6 7 7 7 6 7 8 8
7 11 7 11 12 8 6 8 7 9 9 1 3 5 4 6 1 1 1 0 1 1 5 1 6 11 11 10 5 4 9 8 10 12 11 12 10 8 7 7 8 5 6 6 9 8 9 9 10 9 9 10 13 13 14 13 11 11 10 10 10 9 10 10 10 10 10 8 7 7 5 7 4 4 6 6 6 6 7 6 6 7 7 7 7 7
6 6 9 7 5 5 4 7 10 9 4 4 0 3 5 5 5 3 3 0 1 2 1 1 1 8 7 6 8 10 10 8 9 11 11 10 12 11 11 10 9 9 7 8 8 10 9 10 11 9 9 10 9 9 9 10 11 10 10 9 10 11 10 10 10 11 9 9 7 6 6 5 6 6 4 4 4 5 5 7 6 6 6 7 7 7
8 4 7 6 8 9 8 5 9 7 7 3 2 1 1 0 3 4 4 1 1 1 1 1 5 8 6 7 6 8 9 6 5 8 9 9 9 10 9 8 9 12 10 9 7 5 7 8 10 12 12 10 11 10 11 11 12 10 13 12 13 12 11 10 10 10 8 7 6 6 3 3 2 1 3 4 6 6 5 4 3 5 5 5 5 5
7 6 7 8 6 10 7 6 8 7 6 4 3 6 3 2 4 2 5 4 2 3 3 3 2 5 4 5 11 8 3 5 6 8 11 13 11 7 8 11 8 7 7 12 12 12 11 12 9 7 6 8 9 10 10 11 12 10 10 9 9 9 9 10 9 10 9 9 10 8 8 8 5 7 6 10 9 7 6 6 3 2 4 5 4 5
7 2 9 12 7 6 9 6 5 8 8 6 5 2 4 6 5 6 5 2 1 2 2 1 8 6 6 4 4 4 3 11 6 7 12 10 10 9 11 8 8 9 7 5 5 6 7 7 7 8 8 9 10 10 7 5 6 7 8 8 9 9 9 9 8 9 9 9 9 11 11 10 10 10 6 2 3 6 3 3 4 5 3 3 4 4
2 3 4 6 8 9 8 9 4 7 6 3 1 3 6 8 7 6 5 3 1 1 1 2 3 3 6 9 6 6 4 6 5 7 9 9 8 9 8 6 7 7 6 8 9 8 9 9 11 12 12 10 11 7 4 5 5 8 9 9 9 8 9 8 8 9 9 10 9 9 8 8 8 8 7 4 4 2 4 3 1 0 1 1 1 1
6 6 6 8 6 6 9 5 4 6 5 3 2 6 5 8 6 6 5 3 0 1 5 2 1 1 5 8 7 2 3 3 5 7 9 8 8 8 9 9 9 8 8 7 6 6 7 9 9 8 8 8 6 5 7 7 7 6 6 8 7 8 8 7 9 9 8 9 9 8 8 7 4 6 6 4 2 4 2 4 3 5 3 4 4 4
2 6 11 13 9 8 4 4 4 10 5 3 2 4 4 4 3 6 3 3 0 1 6 4 1 3 8 7 5 2 1 5 7 8 9 9 10 10 8 7 5 4 3 3 5 5 5 5 5 6 5 5 6 6 5 5 5 5 5 7 8 8 7 7 8 8 7 7 8 8 8 8 6 5 3 5 4 3 3 4 3 3 3 2 3 2
2 1 1 2 8 5 6 2 2 3 3 4 5 6 5 6 3 2 4 2 1 3 6 8 5 3 5 4 6 4 5 8 8 5 6 6 6 6 6 6 5 5 3 2 1 1 1 2 4 4 6 5 3 4 5 5 5 5 6 7 8 7 6 6 8 8 8 7 7 8 7 8 7 6 7 7 5 4 5 5 3 3 2 2 4 5
3 1 1 1 1 2 4 5 4 2 4 8 2 4 5 2 5 3 2 3 2 5 5 2 2 4 7 5 5 8 5 3 6 6 8 7 4 3 4 4 4 4 3 2 2 2 1 2 2 3 5 5 5 4 5 5 5 5 6 7 7 5 6 5 6 7 7 7 6 6 7 8 7 8 7 7 7 5 5 3 2 1 2 2 1 1
2 1 1 5 3 2 4 7 3 2 1 5 6 7 8 2 2 1 1 2 4 5 0 2 0 1 8 7 7 7 8 5 5 5 6 6 4 4 3 4 4 4 4 4 5 4 4 5 4 4 4 4 5 6 6 6 5 5 5 7 9 6 5 6 6 7 6 6 6 7 7 7 7 7 7 6 6 5 5 5 3 3 2 2 3 4
2 1 2 3 4 2 3 11 3 2 0 6 8 7 6 2 2 2 3 1 3 5 3 1 1 4 3 7 12 16 18 15 7 6 4 7 9 9 7 5 4 4 4 4 4 5 5 5 4 5 5 5 4 5 6 5 5 5 6 6 8 6 5 5 6 7 6 5 6 6 7 7 7 6 6 6 6 5 5 5 5 5 5 3 1 2
6 2 6 4 2 0 1 3 11 9 9 9 4 10 8 7 5 4 3 5 8 8 2 3 2 6 3 4 2 9 9 10 4 4 4 5 5 5 5 4 4 4 4 4 4 5 6 6 5 5 5 4 4 5 5 4 5 5 6 7 8 7 5 6 6 6 7 6 6 6 6 7 6 6 6 6 5 5 4 3 5 3 4 6 5 6
7 2 2 2 1 1 5 2 1 5 2 1 3 6 5 7 5 4 5 4 2 1 0 0 5 5 5 3 7 3 3 1 0 1 1 3 3 4 4 5 5 4 4 3 4 3 3 4 4 4 4 4 4 5 4 5 5 6 6 6 7 8 6 6 7 6 7 6 6 6 6 5 5 6 6 5 6 5 6 6 7 6 5 6 5 4
2 4 3 6 3 1 1 1 1 2 7 4 5 5 5 2 7 4 2 0 2 3 6 2 5 6 7 8 10 7 5 4 1 2 1 3 3 2 5 5 4 4 4 3 4 4 4 3 3 4 4 4 4 4 5 5 5 7 7 8 7 6 5 6 6 6 6 6 6 5 5 5 5 5 5 6 6 6 5 6 6 6 5 5 5 5
10 3 2 3 3 1 1 0 1 2 2 7 3 8 2 2 4 4 3 1 0 3 6 2 7 5 1 6 4 2 2 5 4 6 6 4 4 5 6 5 5 5 5 4 4 4 4 4 4 3 3 3 4 4 4 4 5 6 6 8 9 7 8 5 7 6 6 6 6 6 6 5 6 6 6 6 6 5 7 6 6 5 6 5 5 5
7 3 0 1 1 6 1 0 1 1 1 3 7 3 8 3 2 1 2 1 1 2 3 2 4 4 6 6 4 2 3 7 10 8 5 7 6 6 5 5 4 3 4 4 5 5 5 5 4 5 4 3 4 3 4 4 6 6 5 5 7 7 6 7 6 6 6 6 5 5 6 6 6 6 6 5 6 6 7 6 6 6 5 5 5 6
2 5 1 1 1 1 1 2 9 3 2 0 2 2 1 3 3 5 7 4 4 5 1 6 2 5 6 6 6 8 8 10 10 5 8 10 8 7 7 6 7 6 6 5 5 5 5 5 5 5 6 6 5 5 4 5 6 7 6 7 7 6 7 7 8 7 7 6 7 6 6 5 5 5 6 6 7 7 6 5 5 5 6 5 5 5
4 2 4 1 2 2 3 3 7 9 7 1 2 3 0 1 1 3 1 5 5 4 4 3 4 4 7 7 7 11 12 11 9 9 9 9 9 9 7 9 8 7 7 6 6 6 6 5 5 5 5 5 4 4 4 5 7 6 6 7 7 9 8 8 6 7 6 7 7 8 7 6 7 7 7 7 7 7 6 5 5 5 4 5 5 5
3 2 7 2 2 4 6 2 3 7 9 9 11 10 11 8 4 5 7 0 2 2 4 4 9 6 9 3 7 9 8 5 7 8 8 8 9 9 7 6 8 7 5 6 5 6 6 5 5 5 4 4 6 5 6 5 6 6 6 6 7 7 6 8 7 7 7 6 7 7 7 7 6 7 7 8 7 7 6 5 5 4 5 6 4 5
5 3 8 5 6 6 4 2 2 2 3 3 4 9 9 6 5 5 7 6 0 3 2 2 2 8 8 3 3 3 2 3 3 4 8 6 7 7 7 7 7 8 8 8 7 6 6 6 6 6 7 6 7 6 6 5 6 6 6 6 6 8 6 6 7 6 7 7 7 7 7 7 7 7 8 9 7 7 6 5 5 5 6 6 5 4
8 5 6 1 1 3 3 3 2 1 2 2 3 2 3 5 3 4 2 5 6 2 3 2 6 7 5 1 3 3 3 4 4 2 4 4 4 5 7 8 8 5 5 5 6 6 7 6 5 6 6 7 6 6 6 6 6 6 6 6 7 8 8 7 7 7 8 8 8 7 8 8 7 9 8 8 6 7 5 6 6 5 6 5 5 6
3 2 8 4 2 1 3 3 2 1 2 1 2 1 0 1 1 2 3 1 1 6 7 6 10 8 5 1 3 1 2 3 3 3 2 3 4 6 8 7 6 6 7 8 8 8 7 7 7 6 6 6 6 5 6 6 6 6 6 6 7 7 7 8 7 8 8 8 9 8 8 8 7 8 7 7 6 7 6 6 6 5 5 6 7 5
5 5 9 7 10 10 8 11 10 3 2 2 3 3 6 6 6 3 4 0 4 2 4 3 7 10 5 6 3 2 3 5 4 4 3 2 4 6 5 6 7 8 9 9 8 7 9 7 6 6 6 5 6 6 6 6 6 6 6 6 5 8 8 8 7 8 9 8 10 9 8 7 7 7 7 7 7 7 7 6 5 6 6 5 6 6
3 3 6 10 13 14 12 3 4 12 5 9 7 8 7 5 6 5 4 4 10 4 6 8 10 15 10 8 3 3 3 5 6 3 3 4 3 3 4 5 7 8 8 9 8 7 6 6 9 8 6 6 6 6 6 7 7 7 7 7 5 6 8 8 9 8 9 8 9 9 7 7 6 6 7 7 7 6 5 5 6 6 6 5 6 7
3 5 8 8 7 4 4 5 10 17 14 14 12 10 8 8 7 9 9 11 4 1 11 10 11 12 19 9 5 6 7 5 5 6 5 5 5 4 4 4 4 4 5 5 5 8 11 9 8 8 8 8 7 7 6 5 6 7 8 9 7 7 8 8 9 9 9 9 9 8 8 6 6 7 7 7 6 5 5 6 7 7 6 6 7 7
7 9 5 5 7 3 5 9 11 10 13 12 14 13 11 10 8 11 12 13 8 10 19 14 9 14 19 7 7 10 11 9 7 9 9 6 3 3 5 7 7 7 7 8 9 7 7 10 9 9 9 9 9 9 8 7 7 5 5 6 7 7 8 8 10 10 9 9 9 8 7 7 6 6 7 7 6 6 6 7 6 6 7 6 6 5
5 4 4 6 7 4 4 8 8 11 6 6 10 13 15 14 16 18 19 18 16 13 13 11 8 17 20 11 8 8 5 7 5 0 2 4 6 8 6 6 8 9 10 11 11 10 9 8 8 8 8 9 10 10 9 9 8 8 9 8 8 8 7 8 9 10 9 9 8 8 7 7 7 7 6 7 7 6 6 7 7 7 6 5 4 3
6 6 10 5 5 5 8 7 7 8 9 7 7 11 15 18 21 22 19 16 13 13 15 13 12 17 20 4 1 3 4 2 1 2 6 9 6 7 8 9 9 10 11 9 9 10 10 8 7 7 9 10 11 12 11 10 9 8 8 8 9 9 7 7 9 8 9 9 7 8 7 8 7 7 8 6 6 6 7 7 6 6 5 4 3 2
4 3 1 5 7 4 4 7 4 2 1 5 8 13 18 19 16 10 10 8 9 15 16 13 14 21 7 12 4 8 6 4 5 6 7 5 5 7 8 9 10 11 11 11 11 9 9 10 11 13 14 13 12 11 11 11 9 9 9 9 9 8 7 8 9 10 9 8 7 7 7 7 7 8 7 7 7 6 6 6 6 5 4 3 3 2
5 6 6 5 6 5 2 6 6 4 1 5 16 25 15 6 9 9 12 12 16 17 12 13 22 16 1 4 10 13 5 5 7 7 6 6 7 9 11 12 12 11 12 11 11 13 13 14 14 13 11 10 12 12 11 12 12 12 11 11 9 8 9 9 9 10 10 7 8 7 6 6 8 8 7 6 6 5 5 5 5 4 4 4 2 2
5 7 6 4 6 1 2 7 5 5 8 17 8 9 11 18 16 11 11 16 15 11 12 14 16 12 4 5 9 13 5 7 9 10 10 10 9 7 7 7 9 10 10 10 12 13 12 9 9 10 11 10 9 9 10 9 10 10 8 10 9 10 9 10 8 9 9 8 7 7 6 6 7 8 6 6 6 5 5 5 5 4 3 3 3 3
8 5 6 3 4 4 3 8 6 9 16 9 3 11 16 14 10 19 20 15 12 12 13 14 16 15 9 9 10 11 7 7 7 10 10 8 5 8 12 12 12 11 13 13 11 10 12 15 12 10 11 12 12 10 10 9 8 9 9 10 11 9 11 9 11 9 9 9 7 7 7 7 7 7 6 6 5 5 5 5 4 4 3 2 2 2
9 9 4 1 5 4 3 6 5 14 8 5 9 7 2 4 7 4 9 7 6 11 15 19 23 20 10 8 6 5 4 5 5 6 8 7 7 9 9 11 13 13 12 13 16 16 15 15 18 20 16 11 11 10 9 10 9 11 11 8 10 10 10 11 10 10 9 9 8 7 6 7 7 7 6 6 6 6 5 4 3 3 2 2 3 2
13 6 6 5 1 6 5 7 9 5 10 10 11 2 8 8 6 9 11 14 14 13 16 18 18 14 10 8 7 5 4 4 6 10 7 10 9 9 13 14 15 15 15 15 17 18 18 15 12 11 11 11 11 12 11 10 10 10 11 10 9 10 10 10 11 10 9 9 8 7 6 6 7 7 7 6 6 6 5 4 3 3 2 3 3 3
9 12 6 8 4 8 7 2 1 4 10 19 2 2 8 8 8 8 7 15 13 15 13 13 15 16 12 4 4 4 1 3 10 13 9 7 10 12 13 12 10 8 9 7 3 4 8 8 9 10 13 13 11 10 10 10 11 12 12 11 10 10 10 10 10 9 9 9 8 7 6 5 6 7 6 6 6 5 3 2 2 1 2 2 2 3
2 2 6 11 3 5 3 6 5 8 16 4 8 8 7 10 12 7 5 14 15 8 7 13 17 15 9 6 6 4 4 6 12 13 9 7 9 10 11 11 4 3 5 8 12 12 11 11 13 13 12 13 14 12 12 12 13 12 12 11 11 10 11 10 10 10 10 9 8 7 6 6 5 6 6 6 5 4 3 2 1 0 2 1 1 2
6 3 6 5 4 5 7 5 7 4 13 5 6 4 10 9 13 9 2 14 1 14 15 12 13 12 9 9 7 8 9 11 12 14 2 5 7 6 7 8 4 3 3 4 4 8 12 13 14 13 15 16 15 13 14 12 12 12 13 11 10 11 11 11 10 8 8 8 8 7 6 5 6 6 6 6 4 3 2 1 1 1 1 2 1 2
3 1 5 12 9 7 9 5 3 7 7 5 8 7 6 12 12 10 16 8 5 9 10 13 13 13 10 8 8 9 11 14 11 3 1 1 4 2 2 2 3 5 8 9 10 11 11 11 14 17 16 13 13 12 12 11 12 12 11 12 11 11 9 9 9 9 9 8 8 7 7 5 5 7 5 4 3 3 2 2 2 1 1 1 3 2
1 3 1 2 7 10 7 7 9 8 9 7 0 11 8 8 6 16 6 4 9 7 6 9 10 9 9 10 10 10 12 8 1 1 2 2 3 4 4 5 7 6 4 4 9 12 11 10 9 9 8 9 13 13 12 12 12 11 11 11 10 9 8 9 9 9 9 9 8 7 7 6 5 5 5 4 4 4 2 2 2 1 1 2 2 3
10 7 8 10 4 2 2 6 1 10 4 13 9 3 4 10 9 4 2 1 1 5 7 5 7 9 9 9 10 12 8 1 3 4 3 2 4 5 6 6 8 9 10 11 8 6 12 11 10 10 10 8 9 10 10 11 12 11 10 11 10 9 9 8 8 9 8 8 8 7 7 6 5 5 4 4 3 3 3 2 2 2 2 2 3 3
10 7 4 8 6 9 8 8 12 10 5 8 14 10 7 11 4 6 6 4 3 4 6 6 6 7 7 10 10 8 6 5 1 2 3 2 3 3 3 4 4 5 5 4 6 9 9 10 9 10 7 7 8 8 9 13 13 12 11 11 8 8 8 8 7 8 8 8 7 7 6 5 4 4 4 4 3 3 3 2 1 1 2 3 3 2
10 12 9 10 4 6 10 13 10 3 7 3 3 3 10 13 6 6 6 6 6 6 4 3 7 5 7 8 7 7 5 8 6 6 7 7 5 6 7 6 7 9 10 11 11 8 8 13 14 11 8 6 7 6 7 7 12 12 12 9 8 9 10 9 9 8 8 8 7 6 5 5 4 5 4 3 3 4 2 0 1 3 3 2 2 0
6 8 3 6 7 7 7 8 3 3 2 1 1 0 1 4 1 4 5 2 4 5 8 6 4 6 5 5 7 4 6 5 5 5 2 4 5 4 3 4 4 5 5 7 8 9 8 9 9 11 11 6 5 6 6 6 9 15 11 9 8 8 8 9 10 9 8 8 7 6 6 6 5 5 4 5 4 2 1 2 3 4 4 2 1 4
3 4 4 5 1 7 11 15 5 4 2 6 6 1 0 1 4 4 5 4 1 3 2 1 3 3 3 2 3 5 4 5 6 4 4 5 6 7 8 9 8 9 12 12 10 11 11 11 12 11 11 10 4 5 5 6 4 4 9 10 8 8 8 9 9 9 8 8 7 6 6 5 4 4 5 4 3 1 1 2 4 3 1 2 5 4
5 3 7 6 6 13 14 4 4 4 4 4 6 4 2 3 1 2 2 3 4 3 3 1 1 2 3 2 2 6 6 6 8 8 7 8 8 8 9 9 10 8 5 6 8 9 9 10 12 12 10 10 7 6 7 6 7 7 7 7 7 8 8 9 9 9 9 8 7 6 6 5 6 6 4 3 2 2 2 3 3 1 1 3 2 3
4 9 7 7 9 5 4 2 1 5 2 2 3 2 1 2 5 4 4 4 4 4 3 2 1 1 3 3 4 5 6 7 8 10 10 7 6 7 9 8 8 8 8 10 9 11 13 12 12 12 12 11 8 8 8 7 7 7 7 7 7 9 10 9 9 8 8 7 7 6 4 5 5 5 5 4 3 3 3 2 1 1 2 1 2 1
6 10 2 5 8 9 12 8 6 3 5 6 5 4 1 1 5 5 4 4 3 4 4 3 1 0 2 3 6 6 7 8 7 7 9 9 10 9 7 8 8 9 8 7 8 8 8 9 12 13 12 10 8 8 8 8 7 6 5 6 7 8 10 10 9 9 8 7 7 7 7 6 5 4 4 4 5 4 2 4 5 2 1 2 2 2
7 5 7 9 11 11 5 4 4 2 2 1 1 0 0 1 5 6 5 4 4 3 5 4 3 1 2 2 2 5 5 5 7 5 5 5 7 8 9 11 12 10 10 10 10 9 10 9 9 9 10 10 9 8 8 8 7 7 7 7 8 9 10 10 10 8 7 7 7 7 7 6 6 5 5 4 4 4 5 3 5 8 10 9 8 6
Wind_Direction
148 165 191 200 200 210 214 200 197 222 204 214 185 178 210 203 260 316 282 265 159 110 222 216 231 247 255 239 239 234 223 231 246 237 226 228 222 208 207 206 209 210 217 209 202 202 195 194 191 185 179 183 184 184 183 187 191 186 181 174 184 181 167 168 175 181 182 190 199 208 206 204 202 201 200 201 201 199 202 200 196 189 191 192 198 201
151 181 199 189 196 203 211 211 214 244 242 237 187 199 228 192 224 250 246 298 306 159 255 227 239 249 247 250 242 240 185 222 214 219 227 224 221 216 207 212 211 217 259 202 218 217 200 193 189 177 179 174 178 196 186 191 195 194 182 182 184 174 176 177 180 182 187 193 197 195 204 191 182 190 194 203 205 203 202 203 201 195 190 192 197 200
188 201 190 196 197 197 216 213 225 229 241 178 169 195 216 247 208 281 350 65 274 96 268 334 221 253 251 251 256 214 205 225 208 201 208 208 220 224 220 219 223 230 216 199 207 198 195 193 187 180 184 188 190 189 190 193 189 193 188 189 182 182 180 183 178 177 192 193 190 188 193 183 192 215 194 188 194 197 201 201 200 198 193 193 198 195
187 229 203 200 171 193 231 221 223 239 240 211 101 93 206 213 148 257 288 32 323 135 236 72 275 273 275 264 245 238 221 228 211 210 217 202 207 212 213 207 208 214 207 205 198 195 193 186 186 183 185 191 189 187 195 191 190 191 191 188 184 185 185 184 184 185 189 184 180 184 172 188 184 192 198 200 203 200 199 212 202 192 190 190 192 193
179 150 190 167 182 200 220 224 216 219 244 278 157 153 195 170 229 162 209 127 336 332 64 20 343 299 250 258 276 259 236 238 226 217 230 232 224 215 216 218 207 201 200 201 204 206 181 182 189 188 192 186 188 190 190 189 191 190 190 187 185 185 185 185 181 182 169 157 166 172 160 147 135 37 164 184 222 209 204 194 173 183 169 173 188 197
188 208 172 180 180 195 204 220 210 178 217 264 237 187 194 183 136 81 101 101 32 320 278 142 352 296 287 265 242 257 326 272 232 202 221 226 228 227 228 223 219 226 205 189 191 192 190 185 188 198 192 190 200 198 198 194 193 189 188 180 180 182 184 183 180 174 165 172 170 169 172 180 189 192 179 194 195 192 191 191 208 200 183 170 166 173
188 175 160 188 181 190 196 204 222 174 197 192 257 190 161 136 119 128 143 81 63 182 305 115 179 265 327 305 262 267 238 243 243 212 228 223 228 223 226 220 206 204 209 232 219 192 181 198 185 197 196 200 200 211 199 193 194 190 181 182 178 180 186 184 176 172 167 172 178 183 187 185 188 188 212 193 175 168 204 167 160 183 196 185 185 198
79 107 172 185 173 180 188 206 224 159 137 223 240 113 119 114 126 175 150 156 192 223 313 41 126 197 295 286 267 258 240 276 289 254 244 236 227 224 228 217 211 207 199 185 192 191 197 190 190 195 204 200 207 197 173 195 195 187 185 181 183 180 181 185 175 174 176 176 180 177 178 176 178 184 186 180 176 167 129 105 83 43 21 60 139 115
149 162 167 170 170 164 192 194 192 151 147 214 236 148 151 154 169 146 138 164 128 116 270 323 300 248 259 268 292 314 305 305 271 250 245 240 234 231 223 217 213 209 204 190 198 202 191 194 206 207 205 215 205 183 191 194 192 187 180 179 176 177 175 182 177 174 182 173 174 172 165 171 181 160 174 167 128 140 140 115 62 94 86 72 79 105
309 172 184 164 162 188 193 199 173 158 153 253 179 89 89 76 81 134 111 120 352 100 257 254 195 201 279 273 318 340 261 274 256 247 246 234 225 224 226 232 228 221 196 189 192 204 212 209 208 207 200 189 201 199 191 183 167 174 168 172 174 180 175 171 173 169 167 164 157 164 172 171 167 152 108 111 105 95 94 102 70 61 53 54 85 95
245 346 184 86 188 171 133 125 155 183 154 126 85 66 26 39 38 23 69 98 69 274 254 230 226 150 287 271 219 191 223 203 234 273 277 271 254 242 233 208 182 171 173 191 221 253 269 249 196 164 166 180 168 179 173 177 175 167 167 167 173 179 167 164 166 165 166 162 164 166 168 162 156 155 135 116 104 99 88 106 74 67 55 43 22 28
3 5 49 294 352 106 106 84 6 94 128 128 108 116 75 346 16 26 344 44 160 269 262 277 233 176 200 292 283 243 277 234 196 223 240 258 256 216 183 191 187 179 192 219 226 246 144 104 113 129 147 160 164 150 169 176 173 169 170 164 165 171 170 165 162 161 161 157 158 151 153 156 157 152 148 145 148 145 135 132 130 78 57 32 17 87
30 3 265 344 297 135 119 95 355 43 77 92 104 109 144 224 44 303 10 255 232 211 275 336 331 339 249 230 262 282 267 285 237 195 206 212 226 233 226 208 197 193 184 188 204 195 195 182 181 179 179 167 169 176 180 183 176 172 166 167 161 174 168 160 155 160 153 145 153 152 152 152 152 145 144 149 147 160 149 157 132 122 170 228 189 215
281 291 354 315 4 229 158 142 160 104 262 114 148 148 132 116 89 193 264 226 310 290 271 254 284 252 249 284 245 248 258 249 228 244 221 184 191 197 199 202 198 205 190 198 198 197 198 203 207 199 188 189 189 186 183 182 174 169 160 160 155 163 161 145 148 149 138 134 141 145 145 143 137 140 142 147 148 168 160 160 164 177 185 173 149 90
132 271 255 152 189 280 230 178 171 161 163 192 154 157 174 152 153 190 181 192 212 211 282 274 84 234 132 244 251 244 266 291 247 219 226 219 200 186 187 184 195 204 231 214 193 196 203 210 197 191 189 188 187 184 180 173 168 154 154 151 146 146 151 138 144 140 134 127 123 126 130 134 125 127 123 131 135 139 128 146 142 138 123 115 114 99
184 143 281 301 236 21 186 301 75 97 101 243 161 95 110 209 146 147 201 160 172 183 352 263 209 188 177 258 290 232 289 36 13 183 97 144 155 145 143 176 198 207 197 176 172 192 212 197 181 169 171 172 174 176 174 172 161 153 151 146 145 146 145 136 136 139 135 129 117 117 111 114 104 111 108 103 102 109 118 122 123 130 128 126 124 119
98 229 346 311 31 106 196 292 318 157 171 219 111 184 208 151 98 102 51 110 114 56 248 180 316 286 297 308 273 278 250 258 314 268 247 208 208 170 192 208 208 208 190 169 150 149 131 110 121 146 151 154 159 164 171 171 162 150 144 140 136 135 131 134 135 134 126 116 107 96 93 108 116 122 127 127 118 115 106 107 107 107 110 103 93 92
152 207 345 43 195 326 215 221 302 23 170 103 160 219 174 116 121 134 205 355 82 178 261 120 212 285 4 278 323 358 279 268 279 246 229 230 219 199 216 211 203 199 195 175 148 139 134 127 119 103 100 124 134 139 124 135 148 142 140 143 139 140 138 138 128 124 122 125 124 125 119 114 120 119 120 120 118 112 100 89 92 91 77 77 83 86
117 76 308 301 195 276 320 313 43 344 34 149 192 185 132 232 223 279 129 239 245 243 265 271 242 258 187 239 337 315 217 250 242 236 236 237 220 218 219 220 214 188 137 145 144 137 132 129 123 117 115 105 100 95 100 105 118 118 116 122 130 132 128 128 121 120 122 125 126 128 124 119 109 108 107 103 100 95 96 93 91 91 104 86 76 78
122 133 278 322 113 277 350 122 191 198 324 4 61 62 62 115 184 147 194 173 127 247 224 292 104 235 211 218 204 249 223 229 236 215 225 226 212 207 206 191 182 180 172 168 162 154 145 136 135 135 135 130 125 111 102 105 106 110 118 115 111 106 111 112 117 122 119 117 115 109 100 95 101 100 103 102 101 93 92 98 99 99 86 99 88 89
191 119 160 257 291 101 191 197 205 161 153 217 94 185 259 55 234 118 352 149 164 177 194 210 294 276 255 214 198 227 232 229 217 215 220 222 216 212 199 183 182 181 177 175 163 154 142 134 127 125 126 123 112 105 102 105 111 115 111 111 118 122 119 112 116 112 115 112 110 109 110 110 102 98 97 91 88 91 89 85 84 86 110 90 78 85
110 145 148 138 96 215 239 231 178 188 195 174 170 187 178 140 124 161 249 17 124 152 232 188 252 265 269 208 209 236 253 241 233 211 221 223 217 209 200 191 176 178 187 169 157 144 139 132 132 126 114 116 114 113 110 113 111 111 112 118 115 109 113 120 116 118 118 110 112 112 112 104 98 98 94 92 87 87 83 76 83 96 78 82 73 83
144 120 110 159 212 196 232 283 258 319 301 227 161 208 182 176 128 136 191 235 21 247 120 147 259 265 242 217 207 219 262 268 267 210 226 228 220 208 197 189 189 179 170 163 152 148 146 147 148 144 139 136 132 129 121 115 116 121 121 117 117 117 117 115 118 115 115 113 111 106 103 102 99 98 96 95 92 93 92 91 85 79 87 82 76 62
75 102 79 4 18 299 306 293 320 16 358 285 296 36 130 193 186 163 157 184 159 223 213 256 244 253 283 243 244 254 247 264 270 205 240 256 207 196 185 185 184 158 146 147 146 147 150 146 140 133 135 132 131 127 121 119 115 113 114 120 120 119 122 117 116 115 110 107 102 104 101 98 101 97 97 97 102 103 99 94 88 88 89 89 80 71
134 251 121 115 41 354 332 347 331 19 55 67 275 148 89 77 85 174 97 94 170 218 180 163 240 264 270 270 274 289 297 292 279 287 210 251 221 191 187 186 177 159 151 156 159 155 148 144 148 148 142 136 131 122 122 121 123 122 123 122 121 119 119 115 116 112 110 112 108 101 101 99 98 102 101 106 107 100 94 88 89 83 86 85 74 64
162 178 140 151 170 183 202 204 202 150 198 252 231 182 184 178 172 131 233 207 214 272 144 197 253 246 267 314 322 315 314 293 266 251 285 212 211 197 187 182 175 168 171 164 155 153 160 159 146 142 145 141 140 137 132 128 128 126 123 123 127 127 122 119 115 115 113 112 108 105 100 101 100 102 106 103 93 87 84 85 82 84 71 77 80 67
158 164 191 187 190 205 208 144 159 139 139 194 213 186 198 193 180 162 113 165 211 212 192 228 227 258 246 242 256 277 283 248 267 300 263 263 271 246 205 186 182 179 175 172 165 158 143 155 164 157 149 147 143 141 140 139 136 133 130 125 123 124 122 125 120 117 113 109 108 106 104 104 105 104 96 87 82 78 77 76 75 71 70 64 73 68
104 186 217 212 218 218 136 151 185 154 178 200 188 201 192 176 173 171 185 221 169 163 256 229 229 242 251 231 226 250 263 270 269 258 260 254 243 208 198 184 162 161 155 146 161 173 175 168 159 159 156 148 147 141 137 137 141 143 142 137 134 130 127 126 121 118 115 114 109 108 109 105 103 94 89 86 85 87 85 78 70 67 61 59 57 56
146 194 224 170 231 155 161 162 174 171 182 188 192 188 184 180 165 184 213 221 169 198 232 230 221 246 256 223 216 223 224 229 226 231 222 205 172 174 174 180 184 186 179 181 188 182 174 175 172 165 161 156 148 147 146 144 140 134 124 127 131 129 129 129 121 118 118 115 113 114 115 107 97 93 90 91 91 85 80 76 74 67 61 56 51 45
134 221 188 174 213 155 218 179 186 171 193 186 192 195 190 178 188 196 210 212 206 224 244 254 235 247 253 243 218 241 213 220 240 338 78 143 201 195 185 189 192 194 194 194 190 187 182 179 174 169 159 156 156 153 154 152 154 152 145 141 135 127 133 125 123 122 120 116 118 118 113 108 105 103 102 95 91 86 81 76 72 70 65 59 52 40
148 248 154 154 186 223 216 202 195 188 159 197 218 203 199 197 199 202 208 215 213 239 244 254 257 262 256 228 232 268 235 264 38 176 206 216 202 184 186 196 201 204 207 200 187 188 186 174 168 164 168 170 168 167 161 159 155 149 140 138 135 135 139 129 125 120 120 119 120 119 116 111 108 105 96 97 91 84 79 76 76 74 70 63 56 48
152 243 108 122 181 254 202 173 172 74 81 189 222 222 215 202 205 211 212 203 185 215 226 238 249 247 263 88 234 230 222 168 205 226 235 241 209 191 194 202 204 209 206 201 195 186 181 180 178 181 181 178 174 169 163 158 155 149 148 145 141 138 134 126 123 121 116 117 118 115 114 113 111 100 95 89 86 86 87 86 83 79 79 71 50 24
171 133 148 155 170 235 269 142 125 99 145 287 241 224 204 202 212 206 219 213 207 203 210 220 236 250 228 169 241 253 197 196 214 225 232 241 222 199 199 203 208 212 207 198 192 193 191 190 190 185 178 175 176 170 169 159 155 160 156 146 144 133 130 127 125 122 118 118 115 114 110 111 106 102 97 94 95 94 90 95 89 81 71 57 34 30
124 137 162 164 173 224 134 128 106 129 209 231 254 106 159 203 202 199 217 218 220 193 218 223 243 253 196 189 224 258 210 200 208 225 209 206 207 209 226 224 219 215 210 205 200 195 194 185 185 187 183 177 171 168 160 164 155 149 144 137 136 134 132 128 125 121 121 118 117 118 116 111 107 104 104 103 99 100 100 93 85 73 64 52 28 30
156 143 167 157 155 137 158 103 125 202 228 229 83 170 192 202 182 207 223 219 216 214 233 252 254 252 214 209 214 232 229 220 222 219 231 232 198 194 201 210 216 212 208 204 199 193 190 189 183 170 171 176 171 163 155 154 151 141 137 142 137 138 133 130 127 124 127 123 121 118 117 115 112 112 111 109 108 103 89 81 73 61 47 60 38 24
161 156 138 105 125 58 96 154 168 227 252 317 273 231 123 153 207 205 266 259 227 208 215 232 239 243 236 229 242 240 239 238 256 260 251 243 201 198 198 211 218 211 208 204 197 197 187 183 184 184 180 158 154 159 159 152 150 144 142 140 138 138 136 133 129 129 128 125 125 123 125 126 125 119 119 112 103 93 85 75 76 66 29 43 8 360
154 128 140 194 172 164 193 182 220 318 309 278 265 204 136 183 143 182 234 252 222 211 205 225 242 250 248 230 229 239 271 317 293 269 230 218 216 213 206 214 211 211 211 209 197 198 193 185 173 160 145 152 155 154 157 152 149 143 139 140 143 137 138 135 133 136 133 128 128 126 129 135 130 123 113 109 100 92 85 75 48 35 52 44 6 357
160 160 209 151 234 131 126 152 340 271 255 253 177 199 174 161 163 168 187 262 242 222 211 216 236 241 240 229 214 219 103 243 268 265 244 218 218 216 226 230 229 227 222 204 145 125 135 141 132 137 147 147 151 152 149 153 150 147 143 143 144 141 139 139 138 140 136 134 133 130 129 131 126 120 114 106 102 98 90 75 63 41 38 54 337 324
27 89 152 169 179 129 141 167 196 206 240 222 149 172 176 155 150 117 152 252 257 168 191 202 229 238 229 215 215 138 177 243 256 257 252 215 222 216 220 232 256 240 185 167 164 156 150 150 148 145 143 146 153 161 156 155 153 149 148 150 150 147 144 146 145 147 143 138 133 127 124 122 117 114 112 103 98 99 88 79 81 18 30 3 332 283
98 118 118 163 184 198 168 190 225 205 255 222 180 177 182 142 117 116 114 251 286 145 194 200 212 226 218 214 185 171 186 234 251 257 258 208 209 203 201 216 169 120 102 114 117 143 140 133 131 146 157 165 164 156 157 155 156 154 151 153 150 150 152 153 151 140 130 126 123 121 119 120 112 104 101 100 91 87 106 101 66 33 16 331 312 284
131 200 177 195 192 187 165 230 304 283 261 172 193 183 149 142 124 144 213 234 181 173 198 193 198 209 211 204 165 200 217 220 239 261 227 126 105 88 46 81 129 145 148 144 138 135 140 154 158 164 166 160 153 155 157 157 154 156 155 152 152 155 151 143 136 134 131 124 119 117 116 110 105 103 98 107 110 97 78 80 80 24 14 314 311 298
258 110 337 107 188 196 196 177 227 256 240 156 245 147 150 107 180 211 222 168 159 203 212 181 193 209 207 199 199 212 230 229 191 154 149 187 156 134 117 110 98 75 62 101 137 141 142 146 142 138 143 153 157 158 160 159 157 153 153 152 154 149 142 139 136 133 128 124 120 117 110 106 97 96 98 92 94 79 75 56 64 35 337 294 271 266
178 151 193 192 188 62 99 205 205 256 256 134 119 87 207 180 223 193 158 345 205 195 176 231 189 212 184 220 213 218 228 171 185 177 178 127 141 150 148 149 143 145 145 139 140 150 142 141 148 153 150 151 155 157 158 154 151 151 153 153 151 144 141 137 135 130 125 120 117 113 109 103 101 96 99 88 86 98 92 57 40 354 319 271 264 244
174 164 199 214 180 166 169 182 212 216 138 169 135 186 202 210 186 171 137 205 236 192 194 188 221 207 192 197 213 226 213 174 205 186 132 133 116 127 118 124 120 120 123 111 132 146 144 136 141 141 144 147 152 157 159 159 154 155 153 151 144 140 137 133 130 125 120 118 115 111 107 104 97 94 90 95 95 99 92 50 12 298 267 251 238 234
199 202 164 186 187 165 200 215 228 158 166 226 181 167 184 203 183 181 178 180 180 246 193 170 215 216 194 191 201 189 186 216 193 173 165 182 172 168 167 165 165 159 156 154 154 151 152 152 151 143 137 142 145 150 151 157 150 147 149 154 148 151 146 140 132 125 122 121 119 112 113 103 98 90 94 95 101 85 92 124 205 237 243 235 236 102
204 195 133 139 223 232 261 231 222 72 114 187 242 173 230 220 86 125 158 182 248 206 174 181 202 196 198 184 147 216 217 183 145 172 143 152 159 167 135 137 135 143 138 136 143 152 142 133 135 142 142 133 136 139 144 148 158 155 162 150 152 148 143 137 131 125 125 123 120 122 117 111 99 92 80 70 70 87 126 186 213 209 222 209 103 62
252 156 135 189 214 169 240 237 195 216 219 199 179 163 258 155 180 160 165 196 192 139 146 330 179 179 167 167 176 171 154 144 151 162 170 165 177 177 176 171 174 169 167 165 162 144 143 147 149 154 151 145 138 132 129 132 116 129 141 150 146 143 138 133 130 128 130 131 132 126 118 114 127 106 79 65 62 54 167 219 214 212 198 103 64 53
252 182 182 192 174 193 239 218 230 243 198 191 163 149 178 195 157 66 93 126 123 120 113 93 99 82 123 140 162 142 164 171 160 178 181 190 185 182 180 179 171 167 171 155 147 149 141 152 155 154 153 151 151 139 134 130 134 138 137 136 140 138 133 132 139 141 141 139 133 126 133 138 128 115 105 105 117 169 198 231 207 175 91 72 67 76
167 132 213 185 208 248 308 6 352 86 93 241 237 236 129 173 148 107 115 113 117 99 92 55 80 213 180 190 154 138 150 201 192 180 180 180 183 185 189 179 177 169 154 153 164 162 166 162 159 162 158 159 159 150 143 140 139 140 141 141 143 145 139 139 134 134 134 132 129 133 130 126 120 128 115 135 162 202 196 178 322 46 353 261 176 135
108 194 191 129 213 220 220 219 122 216 249 252 240 228 267 199 137 134 117 124 135 151 169 157 208 285 217 183 170 169 179 198 203 182 185 187 188 183 171 169 167 164 166 163 154 165 159 168 163 163 163 159 158 152 146 143 141 138 136 145 149 147 146 143 139 139 143 141 140 133 122 123 131 139 152 163 169 158 73 21 62 77 109 339 340 190
173 192 153 191 199 225 230 226 196 147 112 237 188 128 301 196 141 140 169 178 208 211 176 156 180 285 269 262 196 187 210 191 203 181 184 188 195 186 179 168 168 171 172 162 158 170 170 166 166 160 162 162 157 153 151 149 148 150 158 162 157 156 154 150 145 145 144 149 155 152 148 145 145 158 159 170 152 130 108 68 15 46 54 45 30 40